User: anonymous   Login
Location: Unspecified
(0.0000°N, 0.0000°E)
Time: 01:15:59
(UTC+02:00)
Language:

NAVSTAR 65 (USA 213) - Orbit

View from above orbital plane
View from above orbital plane
View from above satellite
View from above satellite

Ground track
Ground track

The orbit data is extracted from the following two-line orbital elements,

1 36585U 10022A   17293.42791874 -.00000071  00000-0  00000+0 0  9994
2 36585  55.9313 335.6592 0064302  45.3295 287.0148  2.00556339 54171
Epoch (UTC): 20 October 2017 10:16:12
Eccentricity: 0.0064302
inclination: 55.9313°
perigee height: 20012 km
apogee height: 20353 km
right ascension of ascending node: 335.6592°
argument of perigee: 45.3295°
revolutions per day: 2.00556339
mean anomaly at epoch: 287.0148°
orbit number at epoch: 5417

The dashed part of the orbit path shows where the satellite is in the earth's shadow,  

DLR